Location: Alpha Ridge Park
(39.3209°N, 76.9128°W)
Time: 17:46:54
(UTC-04:00)

Vanguard 2 Rocket - Pass Details

Date: 23 May 2019
Orbit: 555 x 3326 km, 32.9° (Epoch: 25 June)

Event Time Altitude Azimuth Distance (km) Brightness Sun altitude
Rises 03:04:26 0° 186° (S) 7,199 - -23.9°
Exits shadow 03:11:11 - 171° (S) 6,432 10.8 -23.2°
Reaches altitude 10° 03:12:47 10° 167° (SSE) 6,275 10.7 -23.0°
Maximum altitude 03:22:14 15° 139° (SE) 5,645 10.8 -22.0°
Drops below altitude 10° 03:30:51 10° 110° (ESE) 5,711 11.1 -21.0°
Sets 03:37:31 0° 91° (E) 6,254 11.7 -20.3°
